Clarksburg, WV

3:31 PM EDT on July 17, 2019 (GMT -0400)
Benedum

Weather History for KCKB - May, 2019

Change the Weather History Date:

Friday, May 17, 2019

  Actual Average Record
Temperature  
Mean Temperature 67 °F -  
Max Temperature 76 °F 74 °F 90 °F (1951)
Min Temperature 58 °F 47 °F 31 °F (1984)
Cooling Degree Days 2    
Month to date cooling degree days 46  
Year to date cooling degree days 71  
Growing Degree Days 17 (Base 50)    
Moisture  
Dew Point 59 °F    
Average Humidity 77    
Maximum Humidity 93    
Minimum Humidity 60    
Precipitation  
Precipitation 0.29 in - - ()
Month to date precipitation 2.09  
Year to date precipitation 16.22  
Sea Level Pressure  
Sea Level Pressure 29.86 in    
Wind  
Wind Speed 5 mph (SW)    
Max Wind Speed 15 mph    
Max Gust Speed 18 mph    
Visibility 9 miles    
Events Rain , Thunderstorm    
Averages and records for this station are not official NWS values.
T = Trace of Precipitation, MM = Missing Value Source: NWS Daily Summary

Daily Weather History Graph

Daily Weather History Graph

Search for Another Location

Airport or City:

Astronomy

May. 17, 2019 Rise Set
Actual Time 6:05 AM EDT 8:29 PM EDT
Civil Twilight 5:35 AM EDT 8:59 PM EDT
Nautical Twilight 4:57 AM EDT 9:37 PM EDT
Astronomical Twilight 4:16 AM EDT 10:19 PM EDT
Moon 7:16 PM EDT 5:35 AM EDT
Length of Visible Light 15h 24m
Length of Day
14h 23m
Waxing Gibbous, 98% of the Moon is Illuminated
May 17
Waxing Gibbous
May 18
Full
May 26
Last Quarter
Jun 3
New
Jun 10
First Quarter

Hourly Weather History & Observations

Time (EDT) Temp. Dew Point Humidity Pressure Visibility Wind Dir Wind Speed Gust Speed Precip Events Conditions
12:53 AM 61.0 °F 46.9 °F 60% 29.85 in 10.0 mi SW 3.5 mph - N/A   Mostly Cloudy
1:53 AM 60.1 °F 46.9 °F 62% 29.82 in 10.0 mi Variable 3.5 mph - N/A   Clear
2:53 AM 61.0 °F 46.9 °F 60% 29.81 in 10.0 mi Calm Calm - N/A   Clear
3:53 AM 62.1 °F 48.0 °F 60% 29.78 in 10.0 mi SSW 3.5 mph - N/A   Clear
4:53 AM 62.1 °F 50.0 °F 65% 29.80 in 10.0 mi South 3.5 mph - 0.00 in Rain Light Rain
5:53 AM 59.0 °F 54.0 °F 83% 29.83 in 9.0 mi Calm Calm - 0.04 in Rain Light Rain
6:53 AM 60.1 °F 55.0 °F 83% 29.85 in 4.0 mi SSW 5.8 mph - 0.12 in Rain Heavy Rain
7:41 AM 60.1 °F 57.9 °F 93% 29.89 in 3.0 mi South 4.6 mph - 0.09 in Rain Rain
7:53 AM 60.1 °F 57.0 °F 90% 29.85 in 6.0 mi South 6.9 mph - 0.09 in Rain Light Rain
8:41 AM 61.0 °F 59.0 °F 93% 29.89 in 8.0 mi SW 6.9 mph - 0.01 in Rain Light Rain
8:53 AM 62.1 °F 59.0 °F 90% 29.86 in 9.0 mi South 6.9 mph - 0.01 in   Overcast
9:06 AM 62.1 °F 57.9 °F 86% 29.88 in 10.0 mi South 8.1 mph - N/A   Mostly Cloudy
9:45 AM 64.9 °F 60.1 °F 84% 29.87 in 10.0 mi South 5.8 mph - N/A   Mostly Cloudy
9:53 AM 64.0 °F 59.0 °F 84% 29.85 in 10.0 mi SSW 8.1 mph - N/A   Overcast
10:51 AM 66.2 °F 60.8 °F 83% 29.89 in 10.0 mi WSW 10.4 mph - N/A   Overcast
10:53 AM 66.9 °F 60.1 °F 79% 29.86 in 10.0 mi WSW 11.5 mph - N/A   Overcast
11:33 AM 69.1 °F 60.1 °F 73% 29.89 in 10.0 mi SW 9.2 mph - N/A   Mostly Cloudy
11:53 AM 68.0 °F 60.1 °F 76% 29.86 in 10.0 mi WSW 11.5 mph 18.4 mph N/A   Mostly Cloudy
12:02 PM 70.0 °F 60.1 °F 71% 29.88 in 10.0 mi WSW 12.7 mph - N/A   Mostly Cloudy
12:53 PM 71.1 °F 60.1 °F 68% 29.86 in 10.0 mi Variable 5.8 mph - N/A   Mostly Cloudy
1:00 PM 71.1 °F 60.1 °F 68% 29.89 in 10.0 mi SW 11.5 mph - N/A   Mostly Cloudy
1:10 PM 71.1 °F 60.1 °F 68% 29.88 in 10.0 mi SW 9.2 mph - N/A   Overcast
1:53 PM 71.1 °F 60.1 °F 68% 29.86 in 10.0 mi WSW 8.1 mph - N/A   Overcast
2:53 PM 72.0 °F 62.1 °F 71% 29.86 in 10.0 mi West 6.9 mph - N/A   Overcast
3:53 PM 73.9 °F 63.0 °F 68% 29.85 in 10.0 mi West 9.2 mph - N/A   Overcast
4:39 PM 75.0 °F 64.0 °F 69% 29.88 in 10.0 mi Calm Calm - N/A   Overcast
4:53 PM 75.0 °F 64.0 °F 69% 29.83 in 10.0 mi NNW 4.6 mph - N/A   Mostly Cloudy
5:41 PM 73.9 °F 64.9 °F 73% 29.88 in 10.0 mi Calm Calm - N/A Thunderstorm Mostly Cloudy
5:53 PM 73.9 °F 64.9 °F 73% 29.85 in 5.0 mi WNW 3.5 mph - 0.00 in Rain , Thunderstorm Light Rain
6:38 PM 72.0 °F 64.9 °F 78% 29.89 in 10.0 mi SW 6.9 mph - 0.02 in Rain Light Rain
6:53 PM 72.0 °F 66.9 °F 84% 29.85 in 9.0 mi South 4.6 mph - 0.03 in Rain Light Rain
7:53 PM 69.1 °F 64.0 °F 84% 29.87 in 10.0 mi Calm Calm - 0.00 in   Clear
8:53 PM 66.9 °F 64.0 °F 90% 29.90 in 6.0 mi SSW 3.5 mph - N/A   Mostly Cloudy
9:53 PM 66.0 °F 62.1 °F 87% 29.91 in 9.0 mi Calm Calm - N/A   Clear
10:53 PM 64.9 °F 62.1 °F 90% 29.91 in 10.0 mi Calm Calm - N/A   Scattered Clouds
11:53 PM 64.9 °F 61.0 °F 87% 29.92 in 10.0 mi SSW 3.5 mph - N/A   Clear